Regional Weather Roundup
Issued by NWS Mt. Holly, NJ

Current Version | Previous Version | Text Only | Print | Product List | Glossary On
Versions: 1 2 3 4 5 6 7 8 9 10 11 12 13 14 15 16 17 18 19 20 21 22 23 24 25 26 27 28 29 30 31 32 33 34 35 36 37 38 39 40 41 42 43 44 45 46 47 48 49 50
631
ASUS41 KPHI 250212
RWRPHI

REGIONAL WEATHER ROUNDUP
NATIONAL WEATHER SERVICE MOUNT HOLLY NJ
1000 PM EDT SUN JUL 24 2016

NOTE:  "FAIR" INDICATES FEW OR NO CLOUDS BELOW 12,000 FEET WITH NO
SIGNIFICANT WEATHER AND/OR OBSTRUCTIONS TO VISIBILITY.

 * = STATION DOES NOT REPORT PRECIPITATION (E.G. RAIN, SNOW, ETC.)
        OR FOG.

NJZ015>026-250300-
SOUTHERN NEW JERSEY

CITY           SKY/WX    TMP DP  RH WIND       PRES   REMARKS
POMONA         PTCLDY    78  70  76 S6        30.00R
WILDWOOD*      PTCLDY    77  74  90 S8        30.01R
MILLVILLE      PTCLDY    76  70  82 CALM      30.00R
WRIGHTSTOWN    PTCLDY    77  70  78 SW7       29.97R
MOUNT HOLLY    PTCLDY    77  66  68 S3        29.99R
TRENTON        PTCLDY    81  65  58 S7        29.98R

$$
NJZ001>014-250300-
NORTHERN NEW JERSEY

CITY           SKY/WX    TMP DP  RH WIND       PRES   REMARKS
SUSSEX         MOCLDY    75  69  81 VRB3      29.98R
ANDOVER*         N/A     72  68  87 CALM      29.99R
MORRISTOWN     CLOUDY    75  68  78 CALM      29.97R
NEWARK         MOCLDY    83  67  58 S13       29.96R
TETERBORO      PTCLDY    84  65  52 S9        29.95R
CALDWELL       MOCLDY    84  66  54 SW3       29.96R
SOMERVILLE     MOCLDY    76  67  73 CALM      29.95R
ALLAIRE*       PTCLDY    80  66  62 S6        30.00R
TOMS RIVER*    PTCLDY    75  66  73 S3        30.00R

$$
PAZ043-044-047-054-055-060>062-066>071-250300-
EASTERN PENNSYLVANIA

CITY           SKY/WX    TMP DP  RH WIND       PRES   REMARKS
PHILADELPHIA   MOCLDY    82  65  56 S5        29.99R
NORTH PHILA    PTCLDY    85  65  51 S6        30.00R
BLUE BELL*     PTCLDY    79  66  65 S3        29.99R
DOYLESTOWN     PTCLDY    81  64  56 SW6       29.99R
QUAKERTOWN*    PTCLDY    81  66  61 CALM      30.01R
PERKASIE*      FAIR      79  66  65 CALM      30.01R
POTTSTOWN      MOCLDY    82  67  60 S3        30.01R
LANCASTER      CLOUDY    81  66  60 W8        30.00R
COATESVILLE    CLOUDY    79  68  69 CALM      30.02R
READING        CLOUDY    85  64  49 CALM      29.98R
ALLENTOWN      PTCLDY    82  65  56 SW7       29.98R
MOUNT POCONO   MOCLDY    68  61  78 CALM      30.06R
HAZLETON       PTCLDY    79  63  57 CALM      30.07R
LEHIGHTON      MOCLDY    72  68  88 CALM      30.00R
WILKES BARRE   CLOUDY    83  59  44 S7        29.98R

$$
DEZALL-MDZ008-012-015-019-020-250300-
DELAWARE AND EASTERN MARYLAND

CITY           SKY/WX    TMP DP  RH WIND       PRES   REMARKS
WILMINGTON     MOCLDY    81  73  76 SE7       29.99R
DOVER          MOCLDY    80  75  86 SE5       29.98R
GEORGETOWN     PTCLDY    79  69  71 S5        30.01R
EASTON         CLOUDY    86  77  74 S5        30.03R HX  96
PATUXENT       MOCLDY    85  77  77 SE8       29.99R HX  95
OCEAN CITY     CLEAR     79  77  94 VRB3      30.01R
WALLOPS ISLAND FAIR      81  78  91 SE8       30.01R
CAMBRIDGE      CLOUDY    79  72  78 SE3       29.99R
SALISBURY      PTCLDY    78  74  87 S5        30.00R

$$
PAZ001-021-NYZ056-072-MDZ011-DCZ001-250300-
OTHER NEARBY LOCATIONS

CITY           SKY/WX    TMP DP  RH WIND       PRES   REMARKS
HARRISBURG     LGT RAIN  79  75  87 VRB3      30.00S
STATE COLLEGE  CLOUDY    72  71  97 NW3       30.02F
WILLIAMSPORT   CLOUDY    80  67  64 NW5       29.97R
BINGHAMTON     CLOUDY    75  62  64 NE9       30.01R
NEW YORK CITY  CLEAR     83  66  56 VRB6      29.99R
BALTIMORE      CLOUDY    83  70  64 S3        29.97R
WASHINGTON DC  MOCLDY    87  71  58 S8        29.97R HX  93

$$




USA.gov is the U.S. government's official web portal to all federal, state and local government web resources and services.